Location: Arpaise
(41.0333°N, 14.7333°E)
Time: 00:35:04
(UTC+00:00)

Terra - Pass Details

Date: 05 July 2020
Orbit: 701 x 703 km, 98.2° (Epoch: 11 August)

Event Time Altitude Azimuth Distance (km) Brightness Sun altitude
Exits shadow 20:31:41 29° 125° (SE) 1,279 2.6 -16.9°
Maximum altitude 20:33:40 46° 71° (ENE) 948 2.3 -17.2°
Drops below altitude 10° 20:38:13 10° 359° (N) 2,179 5.2 -17.7°
Sets 20:40:33 0° 354° (N) 3,102 6.2 -17.9°
